Total_Precipitation_Accumulation
2.29 2.53 2.47 2.28 2.37 2.50 2.74 2.95 3.10 2.85 2.65 2.45 2.11 1.88 1.92 2.11 2.34 2.09 2.08 2.02 1.79 1.75 1.66 1.55 1.46 1.51 1.69 1.94 2.13 2.32 2.60 2.84 3.05 3.26 3.41 3.61 3.89 4.23
2.37 2.56 2.48 2.35 2.43 2.50 2.70 2.98 3.29 3.26 2.79 2.27 2.09 1.97 2.15 2.15 2.33 2.05 1.98 2.06 1.84 1.67 1.54 1.49 1.44 1.43 1.48 1.65 1.88 2.06 2.20 2.33 2.53 2.71 2.87 3.02 3.15 3.43
2.23 2.38 2.43 2.54 2.61 2.60 2.72 2.88 3.17 3.41 3.02 2.43 2.31 2.30 2.45 2.41 2.30 2.06 1.84 1.77 1.62 1.59 1.44 1.35 1.32 1.37 1.43 1.49 1.66 1.87 1.96 2.04 2.23 2.40 2.59 2.76 2.81 2.97
2.24 2.38 2.28 2.47 2.65 2.60 2.70 2.71 2.86 3.20 3.05 2.74 2.68 2.61 2.60 2.48 2.47 2.30 1.97 1.77 1.71 1.72 1.49 1.39 1.34 1.31 1.35 1.38 1.50 1.70 1.85 1.94 2.01 2.07 2.13 2.27 2.46 2.65
2.24 2.24 2.22 2.42 2.43 2.54 2.65 2.63 2.63 2.78 2.99 2.87 2.81 2.89 2.82 2.69 2.64 2.45 2.26 2.20 1.86 1.77 1.69 1.59 1.57 1.55 1.52 1.51 1.51 1.59 1.70 1.85 1.98 2.11 2.20 2.26 2.32 2.40
2.24 2.20 2.15 2.18 2.25 2.37 2.46 2.56 2.64 2.77 2.92 2.93 2.96 3.07 3.02 3.05 3.06 2.83 2.67 2.59 2.24 1.84 1.87 1.75 1.70 1.61 1.50 1.44 1.43 1.50 1.62 1.83 2.01 2.10 2.20 2.28 2.34 2.34
2.25 2.16 2.01 2.04 2.13 2.19 2.11 2.26 2.42 2.55 2.60 2.69 2.78 2.99 3.05 3.14 3.12 2.97 2.84 2.86 2.67 2.20 2.03 1.89 1.83 1.72 1.68 1.64 1.54 1.49 1.51 1.64 1.86 2.02 2.10 2.21 2.30 2.32
2.26 2.21 2.07 1.97 1.94 1.89 1.80 1.82 1.94 2.09 2.28 2.53 2.61 2.81 3.00 3.16 3.38 3.41 3.24 3.05 2.89 2.61 2.51 2.35 2.09 1.99 1.81 1.64 1.63 1.46 1.33 1.36 1.46 1.61 1.78 1.96 2.16 2.35
2.16 2.15 1.89 1.74 1.86 1.76 1.77 1.76 1.76 1.90 2.03 2.28 2.46 2.55 2.80 3.02 3.31 3.41 3.43 3.32 3.13 2.97 2.84 2.69 2.36 2.12 1.88 1.75 1.70 1.44 1.28 1.22 1.22 1.27 1.36 1.54 1.71 1.93
2.02 2.05 2.00 1.94 1.95 2.00 1.90 1.75 1.65 1.75 1.89 1.85 1.88 2.05 2.34 2.74 2.97 3.02 3.22 3.26 3.10 2.91 2.84 2.77 2.48 2.25 2.01 1.89 1.83 1.53 1.37 1.30 1.28 1.21 1.18 1.27 1.43 1.57
1.90 1.90 1.90 1.85 1.98 1.88 1.78 1.72 1.68 1.71 1.71 1.71 1.65 1.70 1.86 2.11 2.51 2.69 2.80 2.77 2.62 2.35 2.26 2.30 2.22 2.20 2.12 1.98 1.81 1.71 1.50 1.35 1.27 1.27 1.24 1.22 1.31 1.45
1.91 1.87 1.80 1.69 1.70 1.67 1.64 1.74 1.71 1.72 1.80 1.73 1.59 1.51 1.48 1.67 2.06 2.24 2.35 2.41 2.27 2.16 1.88 1.87 1.86 1.97 2.04 1.84 1.70 1.67 1.63 1.60 1.48 1.33 1.27 1.27 1.40 1.37
1.86 1.85 1.78 1.79 1.60 1.56 1.55 1.55 1.58 1.63 1.75 1.77 1.70 1.64 1.63 1.65 1.76 1.96 2.17 2.28 2.24 1.99 1.85 1.89 1.86 1.91 1.91 1.79 1.69 1.63 1.65 1.73 1.70 1.65 1.60 1.60 1.65 1.59
1.84 1.79 1.81 1.77 1.58 1.53 1.46 1.44 1.48 1.44 1.42 1.54 1.55 1.50 1.50 1.51 1.60 1.78 1.98 2.12 2.19 2.01 1.95 2.02 1.99 1.95 1.93 1.75 1.58 1.49 1.50 1.65 1.81 1.92 1.92 2.00 1.99 2.05
1.75 1.81 1.76 1.65 1.45 1.28 1.29 1.29 1.22 1.17 1.28 1.39 1.39 1.29 1.27 1.33 1.43 1.60 1.78 1.96 1.97 1.88 1.79 1.90 1.99 1.99 1.97 1.79 1.57 1.48 1.49 1.51 1.62 1.84 2.07 2.19 2.16 2.20
1.79 1.78 1.64 1.54 1.35 1.23 1.26 1.21 1.14 1.19 1.30 1.31 1.32 1.30 1.28 1.31 1.35 1.45 1.61 1.76 1.84 1.73 1.69 1.75 1.92 2.11 2.04 1.84 1.78 1.61 1.57 1.55 1.49 1.65 1.98 2.26 2.45 2.52
2.02 1.86 1.70 1.59 1.45 1.36 1.36 1.39 1.41 1.43 1.38 1.35 1.43 1.49 1.47 1.38 1.35 1.41 1.63 1.73 1.73 1.66 1.70 1.76 1.86 2.07 2.10 1.98 1.90 1.71 1.68 1.60 1.53 1.66 1.90 2.06 2.23 2.44
1.87 1.72 1.69 1.65 1.57 1.55 1.56 1.55 1.54 1.54 1.50 1.53 1.55 1.58 1.57 1.48 1.41 1.44 1.58 1.68 1.68 1.64 1.64 1.71 1.94 2.20 2.23 1.98 1.65 1.59 1.62 1.59 1.60 1.80 1.95 1.95 1.98 2.06
1.79 1.76 1.75 1.72 1.62 1.58 1.61 1.60 1.55 1.54 1.59 1.60 1.61 1.63 1.72 1.74 1.73 1.69 1.69 1.79 1.80 1.77 1.70 1.75 1.94 2.13 2.11 1.82 1.54 1.40 1.55 1.69 1.82 1.91 2.00 1.96 1.86 1.88
1.64 1.69 1.68 1.69 1.69 1.68 1.67 1.66 1.64 1.65 1.65 1.66 1.72 1.77 1.87 1.94 1.99 1.94 1.90 1.89 1.93 1.98 1.97 1.93 1.92 1.97 2.05 1.99 1.82 1.69 1.61 1.76 1.94 2.00 1.97 1.96 1.92 1.93
1.58 1.58 1.56 1.57 1.60 1.63 1.62 1.63 1.63 1.66 1.69 1.74 1.77 1.81 1.89 1.92 1.90 1.88 1.90 1.99 2.03 2.12 2.06 1.84 1.78 1.95 2.14 2.34 2.12 1.78 1.68 1.69 1.78 1.87 1.95 2.05 2.04 2.03
1.53 1.50 1.51 1.52 1.58 1.63 1.68 1.69 1.70 1.72 1.79 1.87 1.88 1.89 1.94 1.93 1.88 1.90 1.99 2.05 2.03 2.02 2.02 1.97 2.07 2.20 2.26 2.27 2.03 1.83 1.83 1.89 1.92 1.95 1.97 1.90 1.86 1.81
1.53 1.52 1.49 1.44 1.45 1.50 1.54 1.58 1.62 1.70 1.74 1.81 1.87 1.92 1.96 1.95 1.92 1.98 2.07 2.15 2.19 2.18 2.25 2.30 2.29 2.26 2.14 2.09 2.06 1.95 1.92 2.05 2.14 2.13 2.03 1.85 1.55 1.32